Location: Bay Shore Mobile Home Park
(38.5762°N, 75.0841°W)
Time: 09:07:26
(UTC+00:00)

SL-19 R/B - Pass Details

Date: 15 November 2025
Orbit: 795 x 1008 km, 99.6° (Epoch: 05 December)

Event Time Altitude Azimuth Distance (km) Brightness Sun altitude
Rises 23:08:28 0° 150° (SSE) 3,333 7.1 -16.0°
Reaches altitude 10° 23:10:52 10° 146° (SE) 2,387 6.3 -16.5°
Maximum altitude 23:15:55 52° 71° (ENE) 991 4.2 -17.4°
Drops below altitude 10° 23:20:56 10° 356° (N) 2,373 6.5 -18.4°
Sets 23:23:19 0° 352° (N) 3,313 7.3 -18.9°
